ヤング彗星

C/2019 K5 ( Young )

English version
Home page
Updated on June 14, 2021

---------------------------------------------------------------------

・ プロフィール

発見日 2019年5月25日
発見光度 17.1等
発見者 David Young (Asteroid Terrestrial-Impact Last Alert System (ATLAS) search program)

・ 写真集

・ 軌道要素

Epoch 2019 June 6.0 TT = JDT 2458640.5                                          
T 2019 June 22.74591 TT                                 Rudenko                 
q   2.0350394            (2000.0)            P               Q                  
z  +0.0066460      Peri.  174.91396     +0.99067027     +0.13566348             
 +/-0.0000018      Node   177.18870     -0.13248990     +0.98101757             
e   0.9864752      Incl.   15.31565     -0.03191923     +0.13856384             
From 560 observations 2018 June 17-2020 Mar. 21, mean residual 0".5.            

・ 星図

・ 光度変化

        m1 = 10.0 + 5 logΔ + 13.5 log r(t - 50)

---------------------------------------------------------------------

軌道要素はM.P.E.C. 2020-H67に掲載されたものです。
星図はステラナビゲータ Ver.10 (アストロアーツ) で作成したものです。
光度グラフはComet for Windowsで作成したものです。

---------------------------------------------------------------------

Copyright(C) Seiichi Yoshida (comet@aerith.net). All rights reserved.